Location: York
(31.8935°S, 116.7682°E)
Time: 22:04:17
(UTC+08:00)

N. Korean satellite - Visible Passes

Search period start: 25 September 2022 00:00
Search period end: 05 October 2022 00:00
Orbit: 428 x 468 km, 97.3° (Epoch: 24 September)

Date Brightness Start Highest point End Pass type
(mag) Time Alt. Az. Time Alt. Az. Time Alt. Az.
25 Sep 8.3 04:19:56 10° NE 04:22:54 31° ESE 04:25:56 10° S visible
26 Sep 10.1 03:47:24 10° ESE 03:47:36 10° ESE 03:47:49 10° ESE visible
26 Sep 7.2 05:17:00 10° NNW 05:19:56 29° W 05:22:58 10° SW visible
27 Sep 6.6 04:41:00 10° NNE 04:44:19 70° ESE 04:47:43 10° S visible
28 Sep 9.2 04:06:21 10° ENE 04:08:50 20° ESE 04:11:23 10° SSE visible
29 Sep 6.5 05:02:25 10° N 05:05:39 50° W 05:08:59 10° SSW visible
30 Sep 7.8 04:26:50 10° NE 04:30:00 40° ESE 04:33:14 10° S visible
01 Oct 9.9 03:52:55 10° E 03:54:30 13° ESE 03:56:04 10° SE visible
01 Oct 7.5 05:24:09 10° NNW 05:26:54 24° W 05:29:43 10° SW visible
02 Oct 6.3 04:47:43 10° NNE 04:51:03 90° NNW 04:54:31 10° S visible
03 Oct 8.9 04:12:35 10° NE 04:15:23 24° ESE 04:18:13 10° SSE visible
04 Oct 6.8 05:08:52 10° N 05:12:02 40° W 05:15:19 10° SSW visible
